Starlink 2646

operational
NORAD ID: 48642 Int'l Des: 2021-044 Owner: SPXS Country: US Constellation: starlink
LEOCIRCULARSTARLINK_TYPE

Starlink 2646について

説明を読み込み中...

リアルタイム位置

3D地球を読み込み中...

次回通過

高度履歴

Altitude vs Time

uPlot chart will show altitude changes over time

軌道要素

1 48642U 21044E 25352.12451028 .00000252 00000-0 35800-4 0 9994
2 48642 53.0532 127.7895 0001317 89.1033 271.0107 15.06404373251413
Epoch: Dec 18, 2025 • Age: 10 hours

現在のステータス

高度 552.8 km
速度 7.59 km/s
衛星直下点 52.89°N, 57.29°W
打ち上げ日 May 26, 2021
運用期間 4.5 years
タイプ internet

技術仕様

分類 Payload
質量 260.00 kg
乾燥質量 248.00 kg
総質量 260.00 kg
長さ 0.20 m
直径 2.80 m
スパン 9.00 m
形状 Box + pan
製造者 SPXS
バスタイプ Starlink
フェーズステータス In Orbit
所有者/国 SPXS/US

大規模コンステレーション

Loading constellations...